When you browse on this site, cookies collect data to enhance your experience and personalize the content and advertising you see.
Visit our Privacy Policy to learn more. By continuing to use the site, you agree to this use of cookies and data.
  • în România
  • Lista ţărilor
  • Pe 7 zile
  • Temperatura apei
  • Meteo pe hartă
  • Widget-uri
  • user-avatar
    Intrare

    Meteo pe oră la Perth

    Astăzi, 25 Ianuarie, Sâmbătă

    Timp Temperatura Precipitaţii Vânt Presiune Umiditate
    00:00 +21°C° 0 mm 2 m/s 760 mmHg 74%
    01:00 +20°C° 0 mm 2 m/s 759 mmHg 72%
    02:00 +20°C° 0 mm 2 m/s 759 mmHg 74%
    03:00 +19°C° 0 mm 2 m/s 759 mmHg 76%
    04:00 +19°C° 0 mm 2 m/s 759 mmHg 78%
    05:00 +19°C° 0 mm 3 m/s 759 mmHg 80%
    06:00 +20°C° 0 mm 3 m/s 760 mmHg 75%
    07:00 +22°C° 0 mm 3 m/s 760 mmHg 70%
    08:00 +24°C° 0 mm 3 m/s 760 mmHg 64%
    09:00 +28°C° 0 mm 2 m/s 760 mmHg 54%
    10:00 +31°C° 0 mm 2 m/s 760 mmHg 43%
    11:00 +35°C° 0 mm 2 m/s 759 mmHg 32%
    12:00 +35°C° 0 mm 3 m/s 759 mmHg 33%
    13:00 +35°C° 0 mm 4 m/s 758 mmHg 34%
    14:00 +34°C° 0 mm 5 m/s 758 mmHg 36%
    15:00 +33°C° 0 mm 5 m/s 758 mmHg 38%
    16:00 +33°C° 0 mm 5 m/s 757 mmHg 40%
    17:00 +32°C° 0 mm 6 m/s 757 mmHg 42%
    18:00 +29°C° 0 mm 5 m/s 757 mmHg 50%
    19:00 +27°C° 0 mm 5 m/s 758 mmHg 58%
    20:00 +25°C° 0 mm 4 m/s 758 mmHg 67%
    21:00 +25°C° 0 mm 4 m/s 758 mmHg 67%
    22:00 +23°C° 0 mm 4 m/s 759 mmHg 68%
    23:00 +23°C° 0 mm 4 m/s 759 mmHg 69%

    Mâine, 26 Ianuarie, Duminică

    Timp Temperatura Precipitaţii Vânt Presiune Umiditate
    00:00 +23°C° 0 mm 4 m/s 759 mmHg 69%
    01:00 +22°C° 0 mm 4 m/s 758 mmHg 69%
    02:00 +22°C° 0 mm 4 m/s 758 mmHg 69%
    03:00 +21°C° 0 mm 4 m/s 758 mmHg 72%
    04:00 +21°C° 0 mm 4 m/s 758 mmHg 75%
    05:00 +20°C° 0 mm 3 m/s 758 mmHg 77%
    06:00 +21°C° 0 mm 3 m/s 759 mmHg 72%
    07:00 +22°C° 0 mm 3 m/s 759 mmHg 66%
    08:00 +25°C° 0 mm 3 m/s 759 mmHg 60%
    09:00 +28°C° 0 mm 3 m/s 759 mmHg 52%
    10:00 +30°C° 0 mm 3 m/s 758 mmHg 43%
    11:00 +34°C° 0 mm 2 m/s 758 mmHg 35%
    12:00 +35°C° 0 mm 3 m/s 757 mmHg 34%
    13:00 +36°C° 0 mm 4 m/s 757 mmHg 33%
    14:00 +37°C° 0 mm 5 m/s 756 mmHg 32%
    15:00 +36°C° 0 mm 5 m/s 756 mmHg 35%
    16:00 +35°C° 0 mm 5 m/s 756 mmHg 37%
    17:00 +34°C° 0 mm 6 m/s 756 mmHg 40%
    18:00 +32°C° 0 mm 5 m/s 756 mmHg 44%
    19:00 +29°C° 0 mm 4 m/s 756 mmHg 47%
    20:00 +27°C° 0 mm 4 m/s 756 mmHg 51%
    21:00 +27°C° 0 mm 4 m/s 757 mmHg 50%
    22:00 +27°C° 0 mm 3 m/s 757 mmHg 48%
    23:00 +27°C° 0 mm 3 m/s 757 mmHg 47%

    Poimâine, 27 Ianuarie, Luni

    Timp Temperatura Precipitaţii Vânt Presiune Umiditate
    00:00 +26°C° 0 mm 4 m/s 757 mmHg 51%
    01:00 +26°C° 0 mm 4 m/s 757 mmHg 55%
    02:00 +25°C° 0 mm 5 m/s 757 mmHg 60%
    03:00 +25°C° 0 mm 4 m/s 757 mmHg 62%
    04:00 +24°C° 0 mm 3 m/s 757 mmHg 63%
    05:00 +22°C° 0 mm 3 m/s 757 mmHg 65%
    06:00 +25°C° 0 mm 3 m/s 757 mmHg 61%
    07:00 +26°C° 0 mm 3 m/s 757 mmHg 56%
    08:00 +27°C° 0 mm 3 m/s 757 mmHg 52%
    09:00 +30°C° 0 mm 3 m/s 757 mmHg 44%
    10:00 +34°C° 0 mm 2 m/s 757 mmHg 37%
    11:00 +37°C° 0 mm 2 m/s 757 mmHg 30%
    12:00 +38°C° 0 mm 3 m/s 756 mmHg 30%
    13:00 +38°C° 0 mm 4 m/s 755 mmHg 30%
    14:00 +40°C° 0 mm 5 m/s 754 mmHg 30%
    15:00 +37°C° 0 mm 5 m/s 754 mmHg 32%
    16:00 +36°C° 0 mm 5 m/s 754 mmHg 34%
    17:00 +35°C° 0 mm 5 m/s 754 mmHg 37%
    18:00 +33°C° 0 mm 4 m/s 755 mmHg 41%
    19:00 +30°C° 0 mm 4 m/s 755 mmHg 46%
    20:00 +28°C° 0 mm 4 m/s 756 mmHg 50%
    21:00 +28°C° 0 mm 3 m/s 756 mmHg 49%
    22:00 +27°C° 0 mm 3 m/s 756 mmHg 48%
    23:00 +27°C° 0 mm 3 m/s 756 mmHg 48%

    28 Ianuarie, Marţi

    Timp Temperatura Precipitaţii Vânt Presiune Umiditate
    00:00 +27°C° 0 mm 3 m/s 756 mmHg 50%
    01:00 +26°C° 0 mm 3 m/s 756 mmHg 52%
    02:00 +26°C° 0 mm 4 m/s 756 mmHg 55%
    03:00 +25°C° 0 mm 3 m/s 755 mmHg 59%
    04:00 +24°C° 0 mm 2 m/s 755 mmHg 63%
    05:00 +23°C° 0 mm 1 m/s 755 mmHg 68%
    06:00 +24°C° 0 mm 1 m/s 756 mmHg 63%
    07:00 +26°C° 0 mm 1 m/s 756 mmHg 58%
    08:00 +27°C° 0 mm 1 m/s 756 mmHg 53%
    09:00 +30°C° 0 mm 2 m/s 756 mmHg 46%
    10:00 +32°C° 0 mm 2 m/s 756 mmHg 39%
    11:00 +36°C° 0 mm 3 m/s 755 mmHg 33%
    12:00 +36°C° 0 mm 4 m/s 755 mmHg 33%
    13:00 +36°C° 0 mm 4 m/s 754 mmHg 34%
    14:00 +36°C° 0 mm 5 m/s 754 mmHg 35%
    15:00 +35°C° 0 mm 5 m/s 754 mmHg 37%
    16:00 +34°C° 0 mm 5 m/s 753 mmHg 39%
    17:00 +33°C° 0 mm 5 m/s 753 mmHg 41%
    18:00 +30°C° 0 mm 5 m/s 754 mmHg 46%
    19:00 +28°C° 0 mm 5 m/s 754 mmHg 51%
    20:00 +25°C° 0 mm 5 m/s 755 mmHg 55%
    21:00 +25°C° 0 mm 5 m/s 755 mmHg 58%
    22:00 +23°C° 0 mm 4 m/s 755 mmHg 61%
    23:00 +22°C° 0 mm 4 m/s 755 mmHg 63%

    29 Ianuarie, Miercuri

    Timp Temperatura Precipitaţii Vânt Presiune Umiditate
    00:00 +22°C° 0 mm 3 m/s 755 mmHg 62%
    01:00 +22°C° 0 mm 3 m/s 755 mmHg 62%
    02:00 +21°C° 0 mm 2 m/s 755 mmHg 61%
    03:00 +21°C° 0 mm 2 m/s 755 mmHg 63%
    04:00 +21°C° 0 mm 2 m/s 754 mmHg 66%
    05:00 +20°C° 0 mm 2 m/s 754 mmHg 69%
    06:00 +23°C° 0 mm 1 m/s 755 mmHg 62%
    07:00 +25°C° 0 mm 1 m/s 755 mmHg 56%
    08:00 +26°C° 0 mm 1 m/s 755 mmHg 50%
    09:00 +28°C° 0 mm 2 m/s 755 mmHg 47%
    10:00 +29°C° 0 mm 3 m/s 754 mmHg 44%
    11:00 +32°C° 0 mm 4 m/s 754 mmHg 42%
    12:00 +30°C° 0 mm 5 m/s 753 mmHg 43%
    13:00 +30°C° 0 mm 5 m/s 753 mmHg 45%
    14:00 +30°C° 0 mm 6 m/s 752 mmHg 47%
    15:00 +29°C° 0 mm 6 m/s 752 mmHg 49%
    16:00 +28°C° 0 mm 6 m/s 752 mmHg 52%
    17:00 +26°C° 0 mm 6 m/s 752 mmHg 55%
    18:00 +24°C° 0 mm 6 m/s 752 mmHg 62%
    19:00 +22°C° 0 mm 5 m/s 753 mmHg 70%
    20:00 +21°C° 0 mm 4 m/s 754 mmHg 78%
    21:00 +21°C° 0 mm 4 m/s 754 mmHg 78%
    22:00 +21°C° 0 mm 4 m/s 754 mmHg 79%
    23:00 +20°C° 0 mm 4 m/s 754 mmHg 79%

    30 Ianuarie, Joi

    Timp Temperatura Precipitaţii Vânt Presiune Umiditate
    00:00 +20°C° 0 mm 3 m/s 754 mmHg 79%
    01:00 +20°C° 0 mm 3 m/s 753 mmHg 79%
    02:00 +19°C° 0 mm 2 m/s 753 mmHg 79%
    03:00 +19°C° 0 mm 2 m/s 753 mmHg 79%
    04:00 +20°C° 0 mm 1 m/s 753 mmHg 79%
    05:00 +20°C° 0 mm 1 m/s 753 mmHg 80%
    06:00 +20°C° 0 mm 2 m/s 753 mmHg 76%
    07:00 +21°C° 0 mm 2 m/s 753 mmHg 72%
    08:00 +23°C° 0 mm 2 m/s 753 mmHg 68%
    09:00 +23°C° 0.1 mm 4 m/s 754 mmHg 67%
    10:00 +23°C° 0.1 mm 5 m/s 754 mmHg 67%
    11:00 +23°C° 0.1 mm 6 m/s 754 mmHg 66%
    12:00 +23°C° 0 mm 7 m/s 754 mmHg 61%
    13:00 +24°C° 0 mm 7 m/s 754 mmHg 56%
    14:00 +24°C° 0 mm 8 m/s 754 mmHg 51%
    15:00 +24°C° 0 mm 7 m/s 754 mmHg 50%
    16:00 +23°C° 0 mm 7 m/s 754 mmHg 48%
    17:00 +23°C° 0 mm 7 m/s 754 mmHg 47%
    18:00 +21°C° 0 mm 7 m/s 755 mmHg 52%
    19:00 +20°C° 0 mm 6 m/s 755 mmHg 58%
    20:00 +17°C° 0 mm 6 m/s 756 mmHg 64%
    21:00 +17°C° 0 mm 6 m/s 756 mmHg 64%
    22:00 +16°C° 0 mm 5 m/s 757 mmHg 65%
    23:00 +16°C° 0 mm 5 m/s 757 mmHg 65%
    Arată mai mult